Oscoda, MI

3:04 AM EST on December 08, 2019 (GMT -0500)
Oscoda-Wurtsmith

Weather History for KOSC - October, 2019

Change the Weather History Date:

Monday, October 14, 2019

  Actual Average Record
Temperature  
Mean Temperature 42 °F -  
Max Temperature 53 °F 55 °F 75 °F (2000)
Min Temperature 32 °F 38 °F 26 °F (2002)
Degree Days  
Heating Degree Days 22    
Moisture  
Dew Point 33 °F    
Average Humidity 76    
Maximum Humidity 98    
Minimum Humidity 45    
Precipitation  
Precipitation 0.00 in - - ()
Sea Level Pressure  
Sea Level Pressure 29.94 in    
Wind  
Wind Speed 10 mph (WSW)    
Max Wind Speed 20 mph    
Max Gust Speed 25 mph    
Visibility 10 miles    
Events      
Averages and records for this station are not official NWS values.
T = Trace of Precipitation, MM = Missing Value Source: NWS Daily Summary

Daily Weather History Graph

Daily Weather History Graph

Search for Another Location

Airport or City:

Astronomy

Oct. 14, 2019 Rise Set
Actual Time 7:47 AM EDT 6:51 PM EDT
Civil Twilight 7:17 AM EDT 7:20 PM EDT
Nautical Twilight 6:44 AM EDT 7:54 PM EDT
Astronomical Twilight 6:10 AM EDT 8:27 PM EDT
Moon 7:40 PM EDT (10/14) 8:17 AM EDT (10/14)
Length of Visible Light 12h 02m
Length of Day
11h 04m
Waxing Gibbous, 99% of the Moon is Illuminated
Oct 14
Waxing Gibbous
Oct 21
Last Quarter
Oct 27
New
Nov 4
First Quarter
Nov 12
Full

Hourly Weather History & Observations

Time (EDT) Temp. Windchill Dew Point Humidity Pressure Visibility Wind Dir Wind Speed Gust Speed Precip Events Conditions
12:17 AM 37.8 °F 30.2 °F 35.2 °F 91% 29.81 in 10.0 mi WSW 11.5 mph - N/A   Clear
12:35 AM 37.2 °F 30.6 °F 34.9 °F 91% 29.81 in 10.0 mi WSW 9.2 mph - N/A   Clear
12:55 AM 38.3 °F 30.9 °F 35.1 °F 88% 29.81 in 10.0 mi WSW 11.5 mph - N/A   Clear
1:15 AM 38.3 °F 30.9 °F 35.2 °F 89% 29.81 in 10.0 mi WSW 11.5 mph 16.1 mph N/A   Clear
1:38 AM 38.1 °F 31.2 °F 34.9 °F 88% 29.81 in 10.0 mi WSW 10.4 mph - N/A   Clear
1:56 AM 37.6 °F 30.5 °F 34.7 °F 89% 29.81 in 10.0 mi WSW 10.4 mph - N/A   Clear
2:15 AM 37.6 °F 30.0 °F 34.7 °F 89% 29.81 in 10.0 mi WSW 11.5 mph - N/A   Clear
2:16 AM 37.6 °F 29.6 °F 34.7 °F 89% 29.81 in 10.0 mi WSW 12.7 mph - N/A   Clear
2:35 AM 37.4 °F 29.8 °F 34.3 °F 89% 29.81 in 10.0 mi WSW 11.5 mph - N/A   Clear
2:59 AM 37.6 °F 30.5 °F 34.7 °F 89% 29.81 in 10.0 mi SW 10.4 mph - N/A   Clear
3:17 AM 37.8 °F 30.2 °F 34.7 °F 89% 29.81 in 10.0 mi SW 11.5 mph - N/A   Clear
3:35 AM 37.0 °F 29.8 °F 34.0 °F 89% 29.82 in 10.0 mi WSW 10.4 mph - N/A   Clear
3:36 AM 36.9 °F 29.6 °F 33.8 °F 89% 29.82 in 10.0 mi WSW 10.4 mph - N/A   Clear
3:55 AM 36.1 °F 28.7 °F 33.6 °F 91% 29.82 in 10.0 mi WSW 10.4 mph - N/A   Clear
3:56 AM 36.1 °F 28.7 °F 33.6 °F 91% 29.82 in 10.0 mi WSW 10.4 mph - N/A   Clear
4:15 AM 35.8 °F 28.8 °F 33.3 °F 91% 29.83 in 10.0 mi WSW 9.2 mph - N/A   Clear
4:20 AM 35.8 °F 29.4 °F 33.4 °F 91% 29.83 in 10.0 mi SW 8.1 mph - N/A   Clear
4:38 AM 35.4 °F 28.4 °F 33.4 °F 92% 29.84 in 10.0 mi WSW 9.2 mph - N/A   Clear
4:56 AM 34.9 °F 27.7 °F 33.3 °F 94% 29.85 in 10.0 mi WSW 9.2 mph - N/A   Clear
5:15 AM 34.7 °F 27.5 °F 33.1 °F 94% 29.85 in 10.0 mi WSW 9.2 mph - N/A   Clear
5:35 AM 34.7 °F 28.1 °F 33.4 °F 95% 29.86 in 10.0 mi SW 8.1 mph - N/A   Clear
5:36 AM 34.7 °F 28.8 °F 33.6 °F 96% 29.86 in 10.0 mi SW 6.9 mph - N/A   Clear
5:59 AM 34.7 °F 28.8 °F 33.6 °F 96% 29.87 in 10.0 mi SW 6.9 mph - N/A   Clear
6:17 AM 33.8 °F 28.6 °F 32.9 °F 96% 29.87 in 10.0 mi SW 5.8 mph - N/A   Clear
6:35 AM 33.8 °F 28.6 °F 32.5 °F 95% 29.88 in 10.0 mi SW 5.8 mph - N/A   Clear
6:55 AM 33.3 °F 26.4 °F 32.7 °F 98% 29.88 in 10.0 mi SW 8.1 mph - N/A   Clear
7:15 AM 34.0 °F 28.0 °F 32.9 °F 96% 29.89 in 10.0 mi SW 6.9 mph - N/A   Clear
7:56 AM 33.8 °F 27.7 °F 32.9 °F 96% 29.89 in 10.0 mi SW 6.9 mph - N/A   Clear
8:15 AM 34.2 °F 29.0 °F 33.3 °F 97% 29.90 in 10.0 mi SW 5.8 mph - N/A   Clear
8:16 AM 34.2 °F 29.0 °F 33.3 °F 97% 29.90 in 10.0 mi SW 5.8 mph - N/A   Clear
8:35 AM 35.8 °F 31.9 °F 34.2 °F 94% 29.91 in 10.0 mi SW 4.6 mph - N/A   Clear
8:59 AM 36.7 °F 31.2 °F 34.7 °F 93% 29.92 in 10.0 mi SW 6.9 mph - N/A   Clear
9:17 AM 38.3 °F 31.9 °F 35.6 °F 90% 29.93 in 10.0 mi WSW 9.2 mph - N/A   Clear
9:35 AM 40.1 °F 33.2 °F 36.9 °F 88% 29.93 in 10.0 mi WSW 11.5 mph 17.3 mph N/A   Clear
9:55 AM 41.4 °F 34.0 °F 37.2 °F 85% 29.94 in 10.0 mi WSW 13.8 mph 19.6 mph N/A   Clear
9:56 AM 41.5 °F 34.2 °F 37.2 °F 85% 29.94 in 10.0 mi WSW 13.8 mph 19.6 mph N/A   Clear
10:15 AM 43.5 °F 37.1 °F 37.9 °F 81% 29.94 in 10.0 mi WSW 12.7 mph - N/A   Clear
10:20 AM 43.9 °F 35.9 °F 37.8 °F 79% 29.94 in 10.0 mi WSW 18.4 mph 23.0 mph N/A   Clear
10:38 AM 45.3 °F 38.4 °F 37.6 °F 74% 29.94 in 10.0 mi West 16.1 mph 20.7 mph N/A   Clear
10:56 AM 46.4 °F 40.4 °F 37.0 °F 70% 29.95 in 10.0 mi West 13.8 mph 21.9 mph N/A   Clear
11:15 AM 47.5 °F - 36.7 °F 66% 29.94 in 10.0 mi West 15.0 mph 20.7 mph N/A   Clear
11:16 AM 47.7 °F - 36.7 °F 66% 29.94 in 10.0 mi West 16.1 mph 20.7 mph N/A   Clear
11:35 AM 48.9 °F - 35.8 °F 61% 29.94 in 10.0 mi West 13.8 mph 24.2 mph N/A   Clear
11:59 AM 50.4 °F - 36.9 °F 60% 29.95 in 10.0 mi WSW 15.0 mph 19.6 mph N/A   Scattered Clouds
12:17 PM 49.5 °F - 35.2 °F 58% 29.95 in 10.0 mi WSW 12.7 mph - N/A   Scattered Clouds
12:35 PM 49.8 °F - 36.9 °F 61% 29.95 in 10.0 mi West 12.7 mph 19.6 mph N/A   Scattered Clouds
12:36 PM 49.8 °F - 36.7 °F 61% 29.95 in 10.0 mi West 16.1 mph 20.7 mph N/A   Scattered Clouds
12:55 PM 48.6 °F - 34.9 °F 59% 29.96 in 10.0 mi West 17.3 mph 24.2 mph N/A   Scattered Clouds
1:15 PM 49.6 °F - 34.5 °F 56% 29.95 in 10.0 mi WSW 16.1 mph 20.7 mph N/A   Mostly Cloudy
1:38 PM 50.5 °F - 33.4 °F 52% 29.95 in 10.0 mi West 11.5 mph - N/A   Mostly Cloudy
1:55 PM 51.6 °F - 32.7 °F 49% 29.94 in 10.0 mi West 15.0 mph - N/A   Scattered Clouds
2:15 PM 52.3 °F - 33.4 °F 49% 29.94 in 10.0 mi West 10.4 mph 19.6 mph N/A   Mostly Cloudy
2:16 PM 52.5 °F - 33.6 °F 49% 29.95 in 10.0 mi West 9.2 mph 19.6 mph N/A   Mostly Cloudy
2:35 PM 50.4 °F - 32.2 °F 50% 29.95 in 10.0 mi West 16.1 mph - N/A   Mostly Cloudy
2:59 PM 52.3 °F - 33.6 °F 49% 29.95 in 10.0 mi West 17.3 mph - N/A   Mostly Cloudy
3:17 PM 52.5 °F - 32.7 °F 47% 29.95 in 10.0 mi West 16.1 mph 21.9 mph N/A   Overcast
3:35 PM 52.7 °F - 31.8 °F 45% 29.95 in 10.0 mi West 10.4 mph 20.7 mph N/A   Overcast
3:36 PM 52.9 °F - 31.8 °F 45% 29.95 in 10.0 mi West 9.2 mph 20.7 mph N/A   Overcast
3:55 PM 50.9 °F - 32.0 °F 48% 29.96 in 10.0 mi WSW 17.3 mph - N/A   Overcast
4:15 PM 50.9 °F - 32.9 °F 50% 29.96 in 10.0 mi West 10.4 mph - N/A   Overcast
4:38 PM 53.6 °F - 33.3 °F 46% 29.97 in 10.0 mi West 19.6 mph 25.3 mph N/A   Overcast
4:56 PM 52.7 °F - 33.3 °F 48% 29.98 in 10.0 mi West 12.7 mph 21.9 mph N/A   Overcast
5:15 PM 51.3 °F - 32.2 °F 48% 29.98 in 10.0 mi WSW 12.7 mph - N/A   Scattered Clouds
5:16 PM 51.3 °F - 32.4 °F 48% 29.98 in 10.0 mi WSW 11.5 mph - N/A   Scattered Clouds
5:35 PM 51.1 °F - 32.0 °F 48% 29.98 in 10.0 mi WSW 11.5 mph 18.4 mph N/A   Scattered Clouds
5:59 PM 48.4 °F - 32.2 °F 54% 29.99 in 10.0 mi West 9.2 mph - N/A   Scattered Clouds
6:17 PM 47.1 °F - 32.9 °F 58% 30.00 in 10.0 mi WSW 8.1 mph - N/A   Mostly Cloudy
6:35 PM 46.8 °F - 32.4 °F 57% 30.00 in 10.0 mi West 8.1 mph - N/A   Mostly Cloudy
6:55 PM 45.3 °F 41.6 °F 32.0 °F 60% 30.01 in 10.0 mi West 6.9 mph - N/A   Scattered Clouds
6:56 PM 45.3 °F 41.1 °F 32.2 °F 60% 30.01 in 10.0 mi West 8.1 mph - N/A   Scattered Clouds
7:15 PM 41.2 °F 36.0 °F 31.5 °F 68% 30.01 in 10.0 mi WSW 8.1 mph - N/A   Scattered Clouds
7:20 PM 41.0 °F 35.2 °F 31.5 °F 69% 30.01 in 10.0 mi WSW 9.2 mph - N/A   Scattered Clouds
7:38 PM 38.8 °F 33.8 °F 30.9 °F 73% 30.02 in 10.0 mi WSW 6.9 mph - N/A   Clear
7:56 PM 39.7 °F 35.6 °F 31.8 °F 73% 30.03 in 10.0 mi WSW 5.8 mph - N/A   Clear
8:15 PM 38.5 °F 34.1 °F 31.5 °F 76% 30.03 in 10.0 mi WSW 5.8 mph - N/A   Clear
8:35 PM 37.2 °F 32.6 °F 31.6 °F 80% 30.04 in 10.0 mi WSW 5.8 mph - N/A   Clear
8:36 PM 37.4 °F 32.8 °F 31.6 °F 80% 30.04 in 10.0 mi WSW 5.8 mph - N/A   Clear
8:59 PM 35.8 °F 29.4 °F 30.2 °F 80% 30.04 in 10.0 mi WSW 8.1 mph - N/A   Clear
9:17 PM 35.4 °F 29.7 °F 30.2 °F 81% 30.05 in 10.0 mi WSW 6.9 mph - N/A   Clear
9:35 PM 35.2 °F 29.5 °F 30.0 °F 81% 30.05 in 10.0 mi West 6.9 mph - N/A   Clear
9:36 PM 35.1 °F 29.3 °F 30.0 °F 82% 30.05 in 10.0 mi West 6.9 mph - N/A   Clear
9:55 PM 36.0 °F 32.1 °F 30.7 °F 81% 30.06 in 10.0 mi WSW 4.6 mph - N/A   Clear
9:56 PM 36.0 °F 32.1 °F 30.9 °F 82% 30.06 in 10.0 mi WSW 4.6 mph - N/A   Clear
10:15 PM 35.8 °F 30.9 °F 30.4 °F 81% 30.06 in 10.0 mi WSW 5.8 mph - N/A   Clear
10:38 PM 35.4 °F 29.7 °F 30.0 °F 81% 30.06 in 10.0 mi WSW 6.9 mph - N/A   Clear
10:56 PM 33.1 °F 26.9 °F 29.3 °F 86% 30.07 in 10.0 mi WSW 6.9 mph - N/A   Clear
11:15 PM 32.5 °F 26.2 °F 29.3 °F 88% 30.06 in 10.0 mi WSW 6.9 mph - N/A   Clear
11:16 PM 32.5 °F 26.2 °F 29.3 °F 88% 30.06 in 10.0 mi WSW 6.9 mph - N/A   Clear
11:35 PM 32.9 °F 25.9 °F 29.7 °F 88% 30.06 in 10.0 mi SW 8.1 mph - N/A   Clear
11:59 PM 32.7 °F 26.4 °F 29.3 °F 87% 30.07 in 10.0 mi WSW 6.9 mph - N/A   Clear